Regional Weather Roundup
Issued by NWS

Home | Current Version | Previous Version | Text Only | Print | Product List | Glossary Off
Versions: 1 2 3 4 5 6 7 8 9 10 11 12 13 14 15 16 17 18 19 20 21 22 23 24 25 26 27 28 29 30 31 32 33 34 35 36 37 38 39 40 41 42 43 44 45 46 47 48 49 50

000
ASUS45 KSLC 261810
RWRUT

UTAH REGIONAL WEATHER ROUNDUP
NATIONAL WEATHER SERVICE SALT LAKE CITY UT
1100 AM MST WED NOV 26 2014

UTZ001>011-023>025-261900-

NORTHERN UTAH

CITY           SKY/WX    TMP DP  RH WIND       PRES   REMARKS
HILL AFB       SUNNY     52  33  48 S8        30.41R
LOGAN          SUNNY     52  34  50 CALM      30.38R
OGDEN          SUNNY     53  33  46 S8        30.40R
PROVO AIRPORT  SUNNY     45  28  53 CALM      30.44S
SALT LAKE CITY MOSUNNY   52  30  43 SE8       30.40S
VERNAL         SUNNY     45  29  53 CALM      30.34F
WENDOVER       SUNNY     50  34  53 S3        30.40S
HEBER CITY     SUNNY     41  32  70 CALM      30.42R
WEST JORDAN    SUNNY     52  36  54 SE9       30.41S

$$

UTZ012>022-026-027-261900-

SOUTHERN/CENTRAL UTAH

CITY           SKY/WX    TMP DP  RH WIND       PRES   REMARKS
BLANDING       SUNNY     55  25  31 NW17      30.46F
BRYCE CANYON   SUNNY     31  24  75 N3        30.50F
CEDAR CITY     SUNNY     49  27  42 E5        30.46S
DELTA          SUNNY     43  23  45 S6        30.46S
MILFORD        SUNNY     50  24  36 S12       30.45F
MOAB/CYNLANDS  SUNNY     44  15  31 SE5       30.40F
PRICE          SUNNY     44  24  45 CALM      30.40S
ST GEORGE      CLEAR     45  12  26 CALM      30.48F
KANAB          SUNNY     46  14  27 S3        30.48F

$$

REGIONAL REPORTS     COLORADO/ARIZONA

CITY           SKY/WX    TMP DP  RH WIND       PRES   REMARKS
CRAIG, CO      PTSUNNY   44  29  55 SW10      30.33S
GRAND JUNCTION SUNNY     40  20  44 VRB3      30.41F
RIFLE          SUNNY     36  24  62 NE3       30.43R
MONTROSE       SUNNY     47  25  42 CALM      30.42R
CORTEZ         SUNNY     54  26  34 N18G29    30.39S
PAGE, AZ       SUNNY     48  12  23 N3        30.43S
GRAND CANYON   SUNNY     56  20  24 SW6       30.48S
KINGMAN        SUNNY     57  10  15 N5        30.41S
FLAGSTAFF      SUNNY     56  20  24 E9        30.48S

$$

REGIONAL REPORTS    NEVADA/IDAHO/WYOMING

CITY           SKY/WX    TMP DP  RH WIND       PRES   REMARKS
LAS VEGAS, NV  SUNNY     59  14  17 S3        30.39S
ELY            SUNNY     49  32  52 S6        30.49F
ELKO           SUNNY     43  31  62 CALM      30.45S
POCATELLO, ID  MOSUNNY   51  37  58 SW28G35   30.33S
BURLEY         SUNNY     51  33  50 W13G22    30.34R
EVANSTON, WY   SUNNY     42  28  57 SW21G30   30.38R
ROCK SPRINGS   MOSUNNY   42  30  62 W33G43    30.28R

$$



USA.gov is the U.S. government's official web portal to all federal, state and local government web resources and services.